Madison, SD

1:57 PM CST on February 14, 2016 (GMT -0600)
Madison Municipal

Weather History for KMDS - August, 2013

Change the Weather History Date:

Saturday, August 31, 2013

  Actual Average Record
Temperature  
Mean Temperature 73 °F -  
Max Temperature 89 °F 79 °F 89 °F (2013)
Min Temperature 57 °F 56 °F 55 °F (2012)
Cooling Degree Days 8    
Growing Degree Days 23 (Base 50)    
Moisture  
Dew Point 66 °F    
Average Humidity 81    
Maximum Humidity 100    
Minimum Humidity 55    
Precipitation  
Precipitation 0.00 in - - ()
Sea Level Pressure  
Sea Level Pressure 29.87 in    
Wind  
Wind Speed 7 mph (South)    
Max Wind Speed 13 mph    
Max Gust Speed 21 mph    
Visibility 9 miles    
Events Fog , Rain , Thunderstorm    
Averages and records for this station are not official NWS values.
T = Trace of Precipitation, MM = Missing Value Source: NWS Daily Summary

Daily Weather History Graph

Daily Weather History Graph

Search for Another Location

Airport or City:

Trip Planner

Search our weather history database for the weather conditions in past years. The results will help you decide how hot, cold, wet, or windy it might be!

Date:

Astronomy

Aug. 31, 2013 Rise Set
Actual Time 6:50 AM CDT 8:05 PM CDT
Civil Twilight 6:20 AM CDT 8:35 PM CDT
Nautical Twilight 5:45 AM CDT 9:10 PM CDT
Astronomical Twilight 5:07 AM CDT 9:48 PM CDT
Moon 2:14 AM CDT (8/31) 5:10 PM CDT (8/31)
Length of Visible Light 14h 14m
Length of Day
13h 14m
Waning Crescent, 21% of the Moon is Illuminated
Aug 31
Waning Crescent
Sep 5
New
Sep 12
First Quarter
Sep 19
Full
Sep 26
Last Quarter

Hourly Weather History & Observations

Time (CDT) Temp. Heat Index Dew Point Humidity Pressure Visibility Wind Dir Wind Speed Gust Speed Precip Events Conditions
12:10 AM 64.4 °F - 64.4 °F 100% 29.93 in 10.0 mi East 4.6 mph - N/A   Clear
12:30 AM 62.6 °F - 62.6 °F 100% 29.93 in 10.0 mi East 4.6 mph - N/A   Clear
12:50 AM 62.6 °F - 62.6 °F 100% 29.93 in 10.0 mi East 4.6 mph - N/A   Clear
1:10 AM 62.6 °F - 62.6 °F 100% 29.93 in 10.0 mi ESE 3.5 mph - N/A   Clear
1:30 AM 62.6 °F - 62.6 °F 100% 29.92 in 0.8 mi Calm Calm - N/A   Mist
1:50 AM 60.8 °F - 60.8 °F 100% 29.92 in 0.2 mi East 5.8 mph - N/A Fog Fog
2:10 AM 59.0 °F - 59.0 °F 100% 29.91 in 0.5 mi East 5.8 mph - N/A Fog Fog
2:30 AM 62.6 °F - 62.6 °F 100% 29.92 in 3.0 mi SE 4.6 mph - N/A   Clear
2:50 AM 60.8 °F - 60.8 °F 100% 29.91 in 10.0 mi SSE 4.6 mph - N/A   Clear
3:10 AM 62.6 °F - 62.6 °F 100% 29.92 in 10.0 mi SE 3.5 mph - N/A   Clear
3:30 AM 59.0 °F - 59.0 °F 100% 29.91 in 5.0 mi East 6.9 mph - N/A   Clear
3:50 AM 60.8 °F - 60.8 °F 100% 29.92 in 10.0 mi ENE 5.8 mph - N/A   Clear
4:10 AM 59.0 °F - 59.0 °F 100% 29.91 in 1.2 mi ESE 3.5 mph - N/A   Clear
4:30 AM 59.0 °F - 59.0 °F 100% 29.92 in 0.2 mi Calm Calm - N/A Fog Fog
4:50 AM 59.0 °F - 59.0 °F 100% 29.92 in 1.0 mi NE 6.9 mph - N/A   Mostly Cloudy
5:10 AM 59.0 °F - 59.0 °F 100% 29.93 in 8.0 mi NE 5.8 mph - N/A   Clear
5:30 AM 57.2 °F - 57.2 °F 100% 29.92 in 10.0 mi ENE 6.9 mph - N/A   Clear
5:50 AM 57.2 °F - 57.2 °F 100% 29.90 in 0.5 mi ESE 3.5 mph - N/A Fog Fog
6:10 AM 59.0 °F - 59.0 °F 100% 29.90 in 0.5 mi Calm Calm - N/A Fog Fog
6:30 AM 57.2 °F - 57.2 °F 100% 29.90 in 0.2 mi SSW 5.8 mph - N/A Fog Fog
6:50 AM 57.2 °F - 57.2 °F 100% 29.90 in 5.0 mi SSW 5.8 mph - N/A   Clear
7:10 AM 59.0 °F - 59.0 °F 100% 29.90 in 10.0 mi South 6.9 mph - N/A   Clear
7:30 AM 62.6 °F - 62.6 °F 100% 29.90 in 10.0 mi South 5.8 mph - N/A   Clear
7:50 AM 64.4 °F - 64.4 °F 100% 29.90 in 10.0 mi South 8.1 mph - N/A   Clear
8:10 AM 66.2 °F - 66.2 °F 100% 29.90 in 10.0 mi South 9.2 mph - N/A   Clear
8:30 AM 68.0 °F - 68.0 °F 100% 29.90 in 10.0 mi South 10.4 mph - N/A   Clear
8:50 AM 71.6 °F - 71.6 °F 100% 29.90 in 10.0 mi SSW 9.2 mph - N/A   Clear
9:10 AM 73.4 °F - 73.4 °F 100% 29.89 in 10.0 mi SSW 11.5 mph - N/A   Clear
9:30 AM 75.2 °F - 75.2 °F 100% 29.89 in 10.0 mi SSW 10.4 mph - N/A   Clear
9:50 AM 77.0 °F - 73.4 °F 89% 29.89 in 10.0 mi SSW 12.7 mph - N/A   Clear
10:10 AM 77.0 °F - 73.4 °F 89% 29.88 in 10.0 mi SSW 12.7 mph - N/A   Clear
10:30 AM 80.6 °F 85.4 °F 73.4 °F 79% 29.87 in 10.0 mi SSW 12.7 mph - N/A   Clear
10:50 AM 80.6 °F 85.4 °F 73.4 °F 79% 29.87 in 10.0 mi SSW 11.5 mph - N/A   Clear
11:10 AM 82.4 °F 87.2 °F 71.6 °F 70% 29.87 in 10.0 mi SSW 11.5 mph 16.1 mph N/A   Clear
11:30 AM 82.4 °F 85.4 °F 68.0 °F 62% 29.87 in 10.0 mi South 12.7 mph 17.3 mph N/A   Clear
11:50 AM 82.4 °F 85.4 °F 68.0 °F 62% 29.86 in 10.0 mi South 11.5 mph 18.4 mph N/A   Clear
12:10 PM 84.2 °F 89.6 °F 71.6 °F 66% 29.86 in 10.0 mi South 11.5 mph 16.1 mph N/A   Clear
12:30 PM 84.2 °F 88.4 °F 69.8 °F 62% 29.86 in 10.0 mi WSW 10.4 mph - N/A   Clear
12:50 PM 84.2 °F 88.4 °F 69.8 °F 62% 29.84 in 10.0 mi SW 10.4 mph - N/A   Clear
1:10 PM 86.0 °F 90.4 °F 69.8 °F 58% 29.84 in 10.0 mi SSW 12.7 mph 18.4 mph N/A   Clear
1:30 PM 86.0 °F 91.8 °F 71.6 °F 62% 29.84 in 10.0 mi SW 10.4 mph 20.7 mph N/A   Clear
1:50 PM 87.8 °F 93.8 °F 71.6 °F 58% 29.84 in 10.0 mi South 11.5 mph - N/A   Clear
2:10 PM 86.0 °F 91.8 °F 71.6 °F 62% 29.83 in 10.0 mi SW 9.2 mph 17.3 mph N/A   Clear
2:30 PM 86.0 °F 90.4 °F 69.8 °F 58% 29.83 in 10.0 mi SW 9.2 mph - N/A   Clear
2:50 PM 89.6 °F 96.2 °F 71.6 °F 55% 29.82 in 10.0 mi SW 11.5 mph 17.3 mph N/A   Clear
3:10 PM 86.0 °F 91.8 °F 71.6 °F 62% 29.83 in 10.0 mi SW 11.5 mph - N/A   Clear
3:30 PM 86.0 °F 91.8 °F 71.6 °F 62% 29.82 in 10.0 mi WSW 10.4 mph - N/A   Clear
3:50 PM 87.8 °F 93.8 °F 71.6 °F 58% 29.82 in 10.0 mi SW 12.7 mph 17.3 mph N/A   Clear
4:10 PM 87.8 °F 93.8 °F 71.6 °F 58% 29.83 in 10.0 mi West 9.2 mph - N/A   Clear
4:30 PM 86.0 °F 91.8 °F 71.6 °F 62% 29.82 in 10.0 mi West 9.2 mph 16.1 mph N/A   Clear
4:50 PM 87.8 °F 92.6 °F 69.8 °F 55% 29.82 in 10.0 mi NW 11.5 mph - N/A   Clear
5:10 PM 87.8 °F 92.6 °F 69.8 °F 55% 29.81 in 10.0 mi NW 9.2 mph - N/A   Clear
5:30 PM 86.0 °F 91.8 °F 71.6 °F 62% 29.81 in 10.0 mi NNW 8.1 mph - N/A   Clear
5:50 PM 86.0 °F 90.4 °F 69.8 °F 58% 29.80 in 10.0 mi NNW 9.2 mph - N/A   Partly Cloudy
6:10 PM 84.2 °F 88.4 °F 69.8 °F 62% 29.80 in 10.0 mi NNW 8.1 mph - N/A   Clear
6:30 PM 84.2 °F 87.3 °F 68.0 °F 58% 29.81 in 10.0 mi NNW 6.9 mph - N/A   Clear
6:50 PM 82.4 °F 85.4 °F 68.0 °F 62% 29.81 in 10.0 mi North 5.8 mph - N/A   Clear
7:10 PM 80.6 °F 83.9 °F 69.8 °F 70% 29.82 in 10.0 mi North 6.9 mph - N/A   Clear
7:30 PM 77.0 °F - 69.8 °F 78% 29.83 in 10.0 mi NE 6.9 mph - N/A   Clear
7:50 PM 77.0 °F - 69.8 °F 78% 29.84 in 10.0 mi NNE 8.1 mph - N/A   Clear
8:10 PM 75.2 °F - 71.6 °F 89% 29.85 in 10.0 mi NNE 9.2 mph - N/A   Clear
8:30 PM 75.2 °F - 71.6 °F 89% 29.86 in 10.0 mi North 11.5 mph 17.3 mph N/A   Mostly Cloudy
8:50 PM 75.2 °F - 69.8 °F 83% 29.87 in 10.0 mi North 9.2 mph - N/A Rain Light Rain
9:10 PM 75.2 °F - 62.6 °F 65% 29.86 in 10.0 mi North 11.5 mph 20.7 mph N/A   Mostly Cloudy
9:30 PM 73.4 °F - 64.4 °F 73% 29.86 in 10.0 mi North 9.2 mph - N/A Thunderstorm Partly Cloudy
9:50 PM 69.8 °F - 66.2 °F 88% 29.87 in 10.0 mi NNE 5.8 mph - N/A   Partly Cloudy
10:10 PM 71.6 °F - 66.2 °F 83% 29.87 in 10.0 mi NNE 6.9 mph - N/A   Mostly Cloudy
10:30 PM 71.6 °F - 62.6 °F 73% 29.89 in 10.0 mi North 9.2 mph - N/A   Mostly Cloudy
10:50 PM 71.6 °F - 62.6 °F 73% 29.89 in 10.0 mi North 8.1 mph - N/A   Mostly Cloudy
11:10 PM 71.6 °F - 60.8 °F 69% 29.90 in 10.0 mi NNE 8.1 mph - N/A   Overcast
11:30 PM 71.6 °F - 59.0 °F 64% 29.91 in 10.0 mi NNE 9.2 mph - N/A   Overcast
11:50 PM 71.6 °F - 59.0 °F 64% 29.92 in 10.0 mi NNE 6.9 mph - N/A   Overcast